Regional Weather Roundup
Issued by NWS

Home | Current Version | Previous Version | Graphics & Text | Print | Product List | Glossary On
Versions: 1 2 3 4 5 6 7 8 9 10 11 12 13 14 15 16 17 18 19 20 21 22 23 24 25 26 27 28 29 30 31 32 33 34 35 36 37 38 39 40 41 42 43 44 45 46 47 48 49 50
000
ASUS45 KABQ 042301
RWRNM
NEW MEXICO REGIONAL WEATHER ROUNDUP
NATIONAL WEATHER SERVICE ALBUQUERQUE NM
500 PM MDT TUE AUG 04 2015

NOTE: "FAIR" MEANS FEW OR NO CLOUDS BELOW 12,000 FEET AGL WITH NO
       SIGNIFICANT WEATHER OR OBSTRUCTIONS TO VISION.

      THIS PRODUCT IS RELEASED AS TWO VERSIONS.  ONE VERSION NEAR
      THE TOP OF THE HOUR CONTAINING PRELIMINARY DATA FROM ALBUQUERQUE
      AND OTHER STATIONS.  A FINAL VERSION WITH ADDITIONAL DATA IS
      ISSUED ABOUT 10 MINUTES AFTER THE HOUR.

NMZ501-503-504-510>518-050000-
NORTHWEST PLATEAU/NORTHCENTRAL MOUNTAINS

CITY           SKY/WX    TMP DP  RH WIND       PRES   REMARKS
FARMINGTON     SUNNY     91  38  15 W17       30.13F
SANTA FE       MOSUNNY   90  36  14 NW14G20   30.18F
TAOS           MOSUNNY  N/A N/A N/A W16G23    30.25F

$$
NMZ402-403-502-505>509-050000-
WESTCENTRAL MOUNTAINS/SOUTHWEST MOUNTAINS

CITY           SKY/WX    TMP DP  RH WIND       PRES   REMARKS
GALLUP         MOSUNNY   87  36  16 W9        30.22F
SILVER CITY      N/A     84  50  30 NE15G21   30.18S

$$
NMZ407-409-411-412-050000-
SOUTHERN DESERTS

CITY           SKY/WX    TMP DP  RH WIND       PRES   REMARKS
DEMING         PTSUNNY   99  46  16 W12       30.04F HX  95
HOLLOMAN AFB   SUNNY     97  41  14 NW12      30.00F
ALAMOGORDO     MOSUNNY   97  45  16 NW14      30.03S
T OR C         MOSUNNY   93  47  20 SW15      30.08S

$$
NMZ519>523-050000-
CENTRAL VALLEYS/CENTRAL HIGHLANDS

CITY           SKY/WX    TMP DP  RH WIND       PRES   REMARKS
ALBUQUERQUE    MOSUNNY   92  43  18 N12       30.12F
DOUBLE EAGLE   PTSUNNY   90  48  24 W7        30.17F
MORIARTY ARPT    N/A     86  43  21 W12       30.20F
CLINES CORNERS PTSUNNY   83  47  28 W20       30.24F
BELEN          FAIR      95  36  12 NW8       30.10F
SOCORRO        NOT AVBL

$$
NMZ524>526-539-540-050000-
SOUTHCENTRAL MOUNTAINS

CITY           SKY/WX    TMP DP  RH WIND       PRES   REMARKS
RUIDOSO          N/A    N/A N/A N/A MISG        N/A

$$
NMZ527>531-050000-
NORTHEAST HIGHLANDS/NORTHEAST PLAINS

CITY           SKY/WX    TMP DP  RH WIND       PRES   REMARKS
RATON          MOSUNNY   89  39  17 W10G17    30.13S
CLAYTON        NOT AVBL

$$
NMZ532>537-050000-
EASTCENTRAL PLAINS

CITY           SKY/WX    TMP DP  RH WIND       PRES   REMARKS
TUCUMCARI      SUNNY     95  51  22 SW8       29.96F
CANNON AFB     SUNNY     93  52  24 W9G17     30.01F
CLOVIS AIRPORT MOSUNNY   93  54  26 W9        30.02F

$$
NMZ028-029-538-050000-
SOUTHEAST PLAINS

CITY           SKY/WX    TMP DP  RH WIND       PRES   REMARKS
ROSWELL        LGT RAIN 103  41  12 NE8       29.95F HX  98
ARTESIA        SUNNY     99  52  20 NE5G12    29.96F HX  96
CARLSBAD       MOSUNNY  104  46  14 NE9       29.93F HX 100
HOBBS          MOSUNNY   93  59  31 E7        29.99F


$$



USA.gov is the U.S. government's official web portal to all federal, state and local government web resources and services.